{"data":{"norad_id":40875,"epoch":"2026-09-20T03:11:50.825760Z","epoch_age_seconds":53598,"freshness":"FRESH","line1":"1 40875U 15039B   26263.13322715 -.00000070  00000+0  00000+0 0  9991","line2":"2 40875   0.0677   3.2667 0003631 175.9050 219.8407  1.00271215 40600","mean_motion":1.00271215,"eccentricity":0.0003631,"inclination_deg":0.0677,"raan_deg":3.2667,"arg_perigee_deg":175.905,"mean_anomaly_deg":219.8407,"bstar":0,"rev_number":4060,"period_min":1436.1050676408,"perigee_km":35771.444681443,"apogee_km":35802.064825835,"semimajor_km":42164.891753639,"source":"CELESTRAK","updated_at":"2026-09-20T09:00:35.218151Z"}}